| time (UTC) | temp F | wind direction | speed MPH | gust MPH | rain 1hr in | rain 24hr in | rain mn in | humidity % | barometer mb |
| 20260503211659 | 39 | 190 | 0.0 | 4.0 | 0.00 | 0.00 | 0.00 | 90 | 1019.5 |
| 20260503204557 | 40 | 286 | 1.0 | 2.0 | 0.00 | 0.00 | 0.00 | 89 | 1019.6 |
| 20260503203057 | 40 | 290 | 0.0 | 1.0 | 0.00 | 0.00 | 0.00 | 88 | 1019.6 |
| 20260503201555 | 41 | 284 | 1.0 | 2.0 | 0.00 | 0.00 | 0.00 | 87 | 1019.6 |
| 20260503200055 | 42 | 284 | 0.0 | 1.0 | 0.00 | 0.00 | 0.00 | 86 | 1019.5 |
| 20260503194558 | 42 | 331 | 0.0 | 3.0 | 0.00 | 0.00 | 0.00 | 87 | 1019.4 |
| 20260503193048 | 43 | 205 | 1.0 | 2.0 | 0.00 | 0.00 | 0.00 | 85 | 1019.2 |
| 20260503191549 | 44 | 279 | 0.0 | 0.0 | 0.00 | 0.00 | 0.00 | 82 | 1019.1 |
| 20260503190046 | 44 | 279 | 0.0 | 3.0 | 0.00 | 0.00 | 0.00 | 80 | 1019.0 |
| 20260503184545 | 46 | 252 | 0.0 | 1.0 | 0.00 | 0.00 | 0.00 | 78 | 1018.5 |
| 20260503183047 | 47 | 5 | 0.0 | 1.0 | 0.00 | 0.00 | 0.00 | 77 | 1018.3 |
| 20260503181546 | 48 | 5 | 0.0 | 1.0 | 0.00 | 0.00 | 0.00 | 72 | 1018.1 |
| 20260503180056 | 49 | 177 | 0.0 | 1.0 | 0.00 | 0.00 | 0.00 | 74 | 1017.7 |
| 20260503174543 | 52 | 106 | 0.0 | 1.0 | 0.00 | 0.00 | 0.00 | 65 | 1017.6 |
| 20260503173043 | 53 | 11 | 0.0 | 2.0 | 0.00 | 0.00 | 0.00 | 64 | 1017.4 |
| 20260503171547 | 56 | 24 | 0.0 | 4.0 | 0.00 | 0.00 | 0.00 | 50 | 1017.4 |
| 20260503090104 | 60 | 328 | 9.0 | 21.0 | 0.00 | 0.00 | 0.00 | 38 | 1019.5 |
| 20260503081553 | 56 | 313 | 8.0 | 14.0 | 0.00 | 0.00 | 0.00 | 45 | 1019.6 |
| 20260503071603 | 56 | 315 | 4.0 | 12.0 | 0.00 | 0.00 | 0.00 | 48 | 1019.4 |
| 20260503054534 | 53 | 345 | 7.0 | 17.0 | 0.00 | 0.00 | 0.00 | 57 | 1019.4 |
| 20260503053024 | 52 | 296 | 6.0 | 14.0 | 0.00 | 0.00 | 0.00 | 64 | 1019.5 |
| 20260503051522 | 52 | 305 | 3.0 | 6.0 | 0.00 | 0.00 | 0.00 | 63 | 1019.4 |
| 20260503050025 | 51 | 355 | 3.0 | 6.0 | 0.00 | 0.00 | 0.00 | 64 | 1019.3 |
| 20260503044518 | 51 | 21 | 1.0 | 11.0 | 0.00 | 0.00 | 0.00 | 65 | 1019.0 |
| 20260503043012 | 51 | 331 | 3.0 | 11.0 | 0.00 | 0.00 | 0.00 | 63 | 1018.8 |
| 20260503041511 | 51 | 298 | 5.0 | 17.0 | 0.00 | 0.00 | 0.00 | 63 | 1018.8 |
| 20260503040008 | 51 | 317 | 2.0 | 16.0 | 0.00 | 0.00 | 0.00 | 64 | 1018.6 |
| 20260503034507 | 51 | 296 | 11.0 | 18.0 | 0.00 | 0.00 | 0.00 | 63 | 1018.6 |
| 20260503033006 | 51 | 22 | 2.0 | 9.0 | 0.00 | 0.00 | 0.00 | 67 | 1018.3 |
| 20260503031501 | 50 | 355 | 1.0 | 19.0 | 0.00 | 0.00 | 0.00 | 70 | 1017.8 |
| 20260503030058 | 43 | 341 | 1.0 | 7.0 | 0.00 | 0.00 | 0.00 | 93 | 1018.1 |
| 20260503024556 | 43 | 243 | 0.0 | 2.0 | 0.00 | 0.00 | 0.00 | 92 | 1018.1 |
| 20260503023056 | 43 | 279 | 0.0 | 1.0 | 0.00 | 0.00 | 0.00 | 92 | 1018.3 |
| 20260503021555 | 44 | 321 | 0.0 | 2.0 | 0.00 | 0.00 | 0.00 | 91 | 1018.2 |
| 20260503020055 | 44 | 49 | 2.0 | 6.0 | 0.00 | 0.00 | 0.00 | 91 | 1018.4 |
| 20260503014608 | 44 | 30 | 0.0 | 3.0 | 0.00 | 0.00 | 0.00 | 90 | 1018.3 |
| 20260503013051 | 45 | 26 | 2.0 | 7.0 | 0.00 | 0.00 | 0.00 | 91 | 1018.3 |
| 20260503011556 | 44 | 44 | 1.0 | 3.0 | 0.00 | 0.00 | 0.00 | 92 | 1018.1 |
| 20260503010050 | 43 | 150 | 2.0 | 6.0 | 0.00 | 0.00 | 0.00 | 93 | 1018.1 |
| 20260503004547 | 43 | 169 | 2.0 | 5.0 | 0.00 | 0.00 | 0.00 | 93 | 1018.3 |
| 20260503003048 | 43 | 227 | 1.0 | 3.0 | 0.00 | 0.00 | 0.00 | 92 | 1018.5 |
| 20260503001555 | 43 | 327 | 0.0 | 4.0 | 0.00 | 0.00 | 0.00 | 91 | 1018.6 |
| 20260503000041 | 44 | 54 | 3.0 | 8.0 | 0.00 | 0.00 | 0.00 | 92 | 1018.7 |
| 20260502234542 | 44 | 53 | 1.0 | 4.0 | 0.00 | 0.00 | 0.00 | 92 | 1018.7 |
| 20260502233037 | 44 | 269 | 0.0 | 3.0 | 0.00 | 0.00 | 0.00 | 92 | 1018.8 |
| 20260502231535 | 44 | 186 | 0.0 | 2.0 | 0.00 | 0.00 | 0.00 | 92 | 1019.1 |
| 20260502230135 | 44 | 105 | 0.0 | 3.0 | 0.00 | 0.00 | 0.00 | 92 | 1019.2 |
| 20260502224533 | 44 | 241 | 1.0 | 4.0 | 0.00 | 0.00 | 0.00 | 92 | 1019.4 |
| 20260502223031 | 44 | 252 | 0.0 | 3.0 | 0.00 | 0.00 | 0.00 | 92 | 1019.3 |
| 20260502221527 | 44 | 277 | 2.0 | 4.0 | 0.00 | 0.00 | 0.00 | 91 | 1019.6 |
| 20260502220027 | 45 | 5 | 0.0 | 2.0 | 0.00 | 0.00 | 0.00 | 90 | 1019.7 |
| 20260502214523 | 45 | 40 | 0.0 | 2.0 | 0.00 | 0.00 | 0.00 | 91 | 1019.6 |
| 20260502213023 | 46 | 270 | 0.0 | 0.0 | 0.00 | 0.00 | 0.00 | 90 | 1019.6 |